TimePDT,TemperatureF,Dew PointF,Humidity,Sea Level PressureIn,VisibilityMPH,Wind Direction,Wind SpeedMPH,Gust SpeedMPH,PrecipitationIn,Events,Conditions,WindDirDegrees,DateUTC
12:53 AM,39.9,28.0,63,30.04,10.0,South,9.2,-,N/A,,Clear,180,2013-03-15 07:53:00
1:53 AM,42.1,28.0,58,30.22,10.0,SSW,8.1,-,N/A,,Clear,210,2013-03-15 08:53:00
2:53 AM,39.0,28.0,65,30.21,10.0,South,6.9,-,N/A,,Clear,170,2013-03-15 09:53:00
3:53 AM,39.9,27.0,60,30.01,10.0,SE,8.1,-,N/A,,Clear,140,2013-03-15 10:53:00
4:53 AM,37.0,26.1,65,30.03,10.0,SSE,8.1,-,N/A,,Clear,160,2013-03-15 11:53:00
5:53 AM,34.0,26.1,73,30.06,10.0,South,8.1,-,N/A,,Clear,190,2013-03-15 12:53:00
6:53 AM,32.0,24.1,73,30.09,10.0,SSE,11.5,-,N/A,,Clear,160,2013-03-15 13:53:00
7:53 AM,35.1,25.0,67,30.11,10.0,SSE,12.7,-,N/A,,Clear,160,2013-03-15 14:53:00
8:53 AM,48.0,28.0,46,30.06,10.0,South,9.2,-,N/A,,Clear,170,2013-03-15 15:53:00
9:53 AM,55.0,26.1,33,30.02,10.0,South,8.1,-,N/A,,Clear,170,2013-03-15 16:53:00
10:53 AM,60.1,24.1,25,30.01,10.0,Variable,4.6,-,N/A,,Clear,0,2013-03-15 17:53:00
11:53 AM,64.0,19.9,18,29.97,10.0,East,5.8,-,N/A,,Clear,100,2013-03-15 18:53:00
12:53 PM,64.9,19.9,18,29.96,10.0,SW,8.1,-,N/A,,Clear,230,2013-03-15 19:53:00
1:53 PM,66.0,19.9,17,29.93,10.0,WNW,13.8,17.3,0.01,,Clear,290,2013-03-15 20:53:00
2:53 PM,66.9,21.0,17,29.91,10.0,Calm,Calm,-,N/A,,Clear,0,2013-03-15 21:53:00
3:53 PM,64.0,21.0,19,29.91,10.0,West,4.6,-,N/A,,Partly Cloudy,260,2013-03-15 22:53:00
4:53 PM,63.0,21.0,20,29.92,10.0,WNW,5.8,-,N/A,,Clear,290,2013-03-15 23:53:00
5:53 PM,61.0,19.0,20,29.94,10.0,NW,9.2,-,N/A,,Clear,320,2013-03-16 00:53:00
6:53 PM,54.0,21.0,28,29.98,10.0,West,3.5,-,N/A,,Clear,280,2013-03-16 01:53:00
7:53 PM,48.9,21.9,35,30.01,10.0,WNW,8.1,-,N/A,,Clear,290,2013-03-16 02:53:00
8:53 PM,48.9,21.0,33,29.94,10.0,North,4.6,-,N/A,,Clear,350,2013-03-16 03:53:00
9:53 PM,41.0,24.1,51,29.96,10.0,West,4.6,-,N/A,,Clear,280,2013-03-16 04:53:00
10:53 PM,39.9,24.1,53,29.94,10.0,SE,3.5,-,N/A,,Clear,140,2013-03-16 05:53:00
11:53 PM,39.9,23.0,51,29.91,10.0,SSE,4.6,-,N/A,,Clear,150,2013-03-16 06:53:00